Regional Weather Roundup
Issued by NWS

Home | Current Version | Previous Version | Graphics & Text | Print | Product List | Glossary On
Versions: 1 2 3 4 5 6 7 8 9 10 11 12 13 14 15 16 17 18 19 20 21 22 23 24 25 26 27 28 29 30 31 32 33 34 35 36 37 38 39 40 41 42 43 44 45 46 47 48 49 50
000
ASUS45 KBOU 181507
RWRCO

WEATHER ROUNDUP FOR COLORADO
NATIONAL WEATHER SERVICE DENVER/BOULDER CO
900 AM MDT SAT APR 18 2015

NOTE: "FAIR" INDICATES FEW OR NO CLOUDS BELOW 12000 FEET WITH NO
SIGNIFICANT WEATHER AND/OR OBSTRUCTIONS TO VISIBILITY.

COZ001>005-013-030-031-181600-
...NORTHWEST COLORADO...

CITY           SKY/WX    TMP DP  RH WIND       PRES   REMARKS
CRAIG          LGT SNOW  33  31  92 SW10      30.00S VSB 3/4 WCI  25
HAYDEN         CLOUDY    30  28  93 W7        29.98S WCI  23
MEEKER         CLOUDY    35  32  88 MISG      30.00S
MOUNT WERNER   NOT AVBL
STEAMBOAT SPGS CLOUDY    31  30  97 SW5       29.98R VSB 1/2 WCI  26
WALDEN         CLOUDY    30  28  93 NW8       29.96S VSB 1   WCI  23
$$

COZ006>008-011-181600-
...WEST CENTRAL VALLEYS...

CITY           SKY/WX    TMP DP  RH WIND       PRES   REMARKS
GRAND JUNCTION CLOUDY    36  36 100 E5        30.04S
MONTROSE       CLOUDY    34  33  96 NW3       30.07S
EAGLE          LGT SNOW  30  30 100 CALM      30.03F VSB 1
RIFLE          SNOW      33  31  92 E3        30.02S VSB 1/2
DELTA          CLOUDY    37  36  94 E5        30.06F
NUCLA          PTSUNNY   36  32  87 CALM      30.09R
$$

COZ017>023-064>068-181600-
...SOUTHWEST COLORADO...

CITY           SKY/WX    TMP DP  RH WIND       PRES   REMARKS
DURANGO        PTSUNNY   32  29  88 SW5       30.02S WCI  27
CORTEZ         MOSUNNY   33  32  96 W8        30.05R WCI  26
PAGOSA SPRINGS PTSUNNY   32  16  51 CALM      30.00F THUNDER
TELLURIDE      PTSUNNY   26  21  82 CALM      30.04S
WOLF CREEK PAS SUNNY     18   9  68 CALM      30.02F
$$

COZ009-010-012-014-032>034-037-058>063-181600-
...CENTRAL COLORADO...

CITY           SKY/WX    TMP DP  RH WIND       PRES   REMARKS
ASPEN          SNOW      25  23  92 S3        29.99S VSB 1/2
BUENA VISTA    CLOUDY    24  18  79 CALM      29.98S HAZE
COPPER MTN     CLOUDY    19  14  79 W10       29.96S WCI   8
BERTHOUD PASS  SNOW      14   5  67 MISG      29.97S VSB<1/4
COTTONWOOD PAS CLOUDY    28  19  69 CALM      29.96S
GUNNISON       CLOUDY    25  19  80 CALM      30.06S
KREMMLING      SNOW      30  27  86 CALM      29.99S VSB 1/2
LEADVILLE      LGT SNOW  21  17  84 N3        29.95F VSB 1
MONARCH PASS   CLOUDY    12  10  92 MISG      30.06S
SALIDA         CLOUDY    29  20  70 CALM      30.06F
SUNLIGHT       SNOW     N/A N/A N/A CALM      30.02S VSB 1/2
WILKERSON PASS CLOUDY    21  18  86 CALM      29.97R FOG
$$

COZ069>075-181600-
...SAN LUIS VALLEY/SANGRE DE CRISTO MOUNTAINS...

CITY           SKY/WX    TMP DP  RH WIND       PRES   REMARKS
ALAMOSA        SUNNY     34  18  52 NW10      30.00S WCI  26
LA VETA PASS   MOSUNNY   23  18  80 S12G18    29.94F WCI  12
SAGUACHE       MOSUNNY   30  19  64 NW10      30.00S WCI  21
$$

COZ035-036-038>040-181600-
...NORTHERN COLORADO FRONT RANGE...

CITY           SKY/WX    TMP DP  RH WIND       PRES   REMARKS
DENVER INTL AP CLOUDY    40  36  86 CALM      29.95S
DMNS CITY PARK   N/A     41  34  75 NE2       29.94F
AURORA         FLURRIES  38  38 100 N2        29.95F
FRONT RANGE AP LGT RAIN  41  39  93 NW8       29.95F
ERIE MUNI ARPT CLOUDY    42  37  81 NW5       29.96S
BOULDER MUN AP DRIZZLE   37  36  93 SW3       29.95S
CENTENNIAL     CLOUDY    38  34  85 SW7       29.94S
BROOMFIELD     CLOUDY    41  36  81 CALM      29.95F
FORT COLLINS   PTSUNNY   43  34  70 SE3       29.96S
LONGMONT       CLOUDY    45  38  78 SE3       29.97R
$$

COZ041-046-047-076>085-087-088-181600-
...PIKES PEAK/PALMER DIVIDE AND SOUTHERN FOOTHILLS...

CITY           SKY/WX    TMP DP  RH WIND       PRES   REMARKS
COLO. SPRINGS  PTSUNNY   41  33  73 NE8       29.94F
A. F. ACADEMY  MOSUNNY   39  30  70 N10       29.93S
ELLICOTT       MOSUNNY  N/A N/A N/A NE10      29.93F
FALCON         PTSUNNY   37  31  81 N6        29.95R
FORT CARSON    MOSUNNY   41  33  74 NE7       29.93S
LIMON          CLOUDY    38  36  92 N5        29.94R
MONUMENT HILL  CLOUDY    34  32  93 NW5       29.94S FOG     WCI  30
TRINIDAD       PTSUNNY   42  25  50 W9        29.94S
$$

COZ042>045-048>051-090-091-181600-
...NORTHEAST COLORADO...

CITY           SKY/WX    TMP DP  RH WIND       PRES   REMARKS
GREELEY ARPT   CLOUDY    43  34  70 NW5       29.96S
AKRON          CLOUDY    41  40  96 NW8       29.93S
BURLINGTON     CLOUDY    44  42  93 NE10      29.91S FOG
WRAY           CLOUDY    48  45  89 NE5       29.92F
STERLING       CLOUDY    45  41  87 CALM      29.95R
HOLYOKE        CLOUDY    50  45  81 E3        29.93F
FORT MORGAN    CLOUDY    42  38  87 N8        29.96R
$$

COZ086-089-092>099-181600-
...SOUTHEAST COLORADO...

CITY           SKY/WX    TMP DP  RH WIND       PRES   REMARKS
PUEBLO         SUNNY     44  33  65 NW5       29.93F
LA JUNTA       SUNNY     48  37  65 NW17      29.92S
LAMAR          SUNNY     51  42  71 N12       29.88F
SPRINGFIELD      N/A     48  36  63 NW16      29.90S
$$



USA.gov is the U.S. government's official web portal to all federal, state and local government web resources and services.